| time (UTC) | temp F | wind direction | speed MPH | gust MPH | rain 1hr in | rain 24hr in | rain mn in | humidity % | barometer mb |
| 20260904171018 | 91 | 248 | 3.0 | 7.0 | 0.00 | 0.00 | 0.00 | 52 | 1014.7 |
| 20260904170015 | 91 | 199 | 3.0 | 8.0 | 0.00 | 0.00 | 0.00 | 51 | 1014.8 |
| 20260904165036 | 91 | 208 | 3.0 | 9.0 | 0.00 | 0.00 | 0.00 | 50 | 1014.8 |
| 20260904164016 | 92 | 222 | 3.0 | 9.0 | 0.00 | 0.00 | 0.00 | 49 | 1014.9 |
| 20260904163016 | 91 | 245 | 4.0 | 7.0 | 0.00 | 0.00 | 0.00 | 50 | 1014.8 |
| 20260904162016 | 91 | 237 | 5.0 | 9.0 | 0.00 | 0.00 | 0.00 | 52 | 1014.8 |
| 20260904161016 | 90 | 232 | 3.0 | 8.0 | 0.00 | 0.00 | 0.00 | 54 | 1014.8 |
| 20260904160016 | 90 | 203 | 4.0 | 9.0 | 0.00 | 0.00 | 0.00 | 55 | 1014.8 |
| 20260904155017 | 89 | 190 | 2.0 | 5.0 | 0.00 | 0.00 | 0.00 | 60 | 1014.8 |
| 20260904154037 | 88 | 243 | 2.0 | 6.0 | 0.00 | 0.00 | 0.00 | 65 | 1014.8 |
| 20260904153016 | 87 | 198 | 3.0 | 7.0 | 0.00 | 0.00 | 0.00 | 67 | 1014.7 |
| 20260904152017 | 87 | 215 | 2.0 | 6.0 | 0.00 | 0.00 | 0.00 | 68 | 1014.7 |
| 20260904151017 | 86 | 223 | 3.0 | 6.0 | 0.00 | 0.00 | 0.00 | 70 | 1014.7 |
| 20260904150017 | 85 | 220 | 3.0 | 6.0 | 0.00 | 0.00 | 0.00 | 72 | 1014.8 |
| 20260904145018 | 85 | 222 | 3.0 | 7.0 | 0.00 | 0.00 | 0.00 | 74 | 1014.9 |
| 20260904144018 | 84 | 228 | 3.0 | 8.0 | 0.00 | 0.00 | 0.00 | 76 | 1014.8 |
| 20260904143038 | 83 | 213 | 3.0 | 7.0 | 0.00 | 0.00 | 0.00 | 78 | 1014.8 |
| 20260904142018 | 82 | 148 | 2.0 | 6.0 | 0.00 | 0.00 | 0.00 | 79 | 1014.8 |
| 20260904141038 | 81 | 175 | 1.0 | 5.0 | 0.00 | 0.00 | 0.00 | 82 | 1014.9 |
| 20260904140018 | 80 | 106 | 2.0 | 5.0 | 0.00 | 0.00 | 0.00 | 84 | 1014.9 |
| 20260904135016 | 80 | 124 | 2.0 | 7.0 | 0.00 | 0.00 | 0.00 | 84 | 1014.8 |
| 20260904134018 | 80 | 155 | 1.0 | 5.0 | 0.00 | 0.00 | 0.00 | 85 | 1014.8 |
| 20260904133016 | 80 | 178 | 2.0 | 5.0 | 0.00 | 0.00 | 0.00 | 85 | 1014.6 |
| 20260904132016 | 79 | 124 | 1.0 | 3.0 | 0.00 | 0.00 | 0.00 | 85 | 1014.5 |
| 20260904131016 | 79 | 121 | 2.0 | 6.0 | 0.00 | 0.00 | 0.00 | 85 | 1014.4 |
| 20260904130017 | 79 | 172 | 1.0 | 4.0 | 0.00 | 0.00 | 0.00 | 86 | 1014.3 |
| 20260904125017 | 79 | 147 | 1.0 | 4.0 | 0.00 | 0.00 | 0.00 | 86 | 1014.2 |
| 20260904124045 | 79 | 150 | 2.0 | 5.0 | 0.00 | 0.00 | 0.00 | 86 | 1014.1 |
| 20260904123017 | 79 | 123 | 1.0 | 3.0 | 0.00 | 0.00 | 0.00 | 86 | 1014.1 |
| 20260904122017 | 78 | 108 | 2.0 | 4.0 | 0.00 | 0.00 | 0.00 | 86 | 1014.0 |
| 20260904121017 | 79 | 113 | 1.0 | 3.0 | 0.00 | 0.00 | 0.00 | 86 | 1013.9 |
| 20260904120018 | 79 | 124 | 1.0 | 4.0 | 0.00 | 0.00 | 0.00 | 85 | 1013.7 |
| 20260904115017 | 79 | 116 | 1.0 | 3.0 | 0.00 | 0.00 | 0.00 | 85 | 1013.6 |
| 20260904114018 | 79 | 125 | 1.0 | 3.0 | 0.00 | 0.00 | 0.00 | 85 | 1013.6 |
| 20260904113058 | 79 | 100 | 0.0 | 3.0 | 0.00 | 0.00 | 0.00 | 85 | 1013.7 |
| 20260904112015 | 79 | 128 | 1.0 | 2.0 | 0.00 | 0.00 | 0.00 | 85 | 1013.6 |
| 20260904111015 | 79 | 121 | 1.0 | 3.0 | 0.00 | 0.00 | 0.00 | 85 | 1013.6 |
| 20260904110015 | 79 | 171 | 1.0 | 4.0 | 0.00 | 0.00 | 0.00 | 85 | 1013.5 |
| 20260904105015 | 79 | 206 | 1.0 | 4.0 | 0.00 | 0.00 | 0.00 | 85 | 1013.4 |
| 20260904104016 | 79 | 195 | 1.0 | 4.0 | 0.00 | 0.00 | 0.00 | 85 | 1013.3 |
| 20260904103016 | 79 | 219 | 1.0 | 3.0 | 0.00 | 0.00 | 0.00 | 85 | 1013.3 |
| 20260904102016 | 79 | 202 | 1.0 | 4.0 | 0.00 | 0.00 | 0.00 | 84 | 1013.3 |
| 20260904101016 | 79 | 172 | 2.0 | 7.0 | 0.00 | 0.00 | 0.00 | 84 | 1013.3 |
| 20260904100036 | 79 | 152 | 1.0 | 4.0 | 0.00 | 0.00 | 0.00 | 84 | 1013.3 |
| 20260904095037 | 79 | 162 | 1.0 | 3.0 | 0.00 | 0.00 | 0.00 | 84 | 1013.3 |
| 20260904094017 | 79 | 198 | 1.0 | 4.0 | 0.00 | 0.00 | 0.00 | 84 | 1013.2 |
| 20260904093017 | 79 | 184 | 1.0 | 3.0 | 0.00 | 0.00 | 0.00 | 84 | 1013.2 |
| 20260904092017 | 79 | 155 | 1.0 | 3.0 | 0.00 | 0.00 | 0.00 | 84 | 1013.2 |
| 20260904091018 | 79 | 194 | 1.0 | 4.0 | 0.00 | 0.00 | 0.00 | 84 | 1013.2 |
| 20260904090017 | 79 | 193 | 1.0 | 3.0 | 0.00 | 0.00 | 0.00 | 84 | 1013.2 |
| 20260904085017 | 79 | 178 | 1.0 | 4.0 | 0.00 | 0.00 | 0.00 | 83 | 1013.2 |
| 20260904084018 | 79 | 197 | 1.0 | 4.0 | 0.00 | 0.00 | 0.00 | 83 | 1013.1 |
| 20260904083018 | 79 | 196 | 1.0 | 3.0 | 0.00 | 0.00 | 0.00 | 83 | 1013.1 |
| 20260904082019 | 79 | 197 | 1.0 | 6.0 | 0.00 | 0.00 | 0.00 | 83 | 1013.1 |
| 20260904081038 | 79 | 166 | 1.0 | 4.0 | 0.00 | 0.00 | 0.00 | 83 | 1013.0 |
| 20260904080015 | 79 | 222 | 1.0 | 4.0 | 0.00 | 0.00 | 0.00 | 83 | 1013.0 |
| 20260904075016 | 79 | 209 | 1.0 | 4.0 | 0.00 | 0.00 | 0.00 | 83 | 1013.0 |
| 20260904074016 | 79 | 186 | 1.0 | 4.0 | 0.00 | 0.00 | 0.00 | 82 | 1013.2 |
| 20260904073036 | 79 | 181 | 2.0 | 6.0 | 0.00 | 0.00 | 0.00 | 82 | 1013.1 |
| 20260904072016 | 79 | 156 | 1.0 | 4.0 | 0.00 | 0.00 | 0.00 | 81 | 1013.3 |
| 20260904071017 | 79 | 197 | 2.0 | 4.0 | 0.00 | 0.00 | 0.00 | 81 | 1013.4 |
| 20260904070016 | 79 | 179 | 2.0 | 5.0 | 0.00 | 0.00 | 0.00 | 80 | 1013.4 |
| 20260904065017 | 79 | 204 | 1.0 | 4.0 | 0.00 | 0.00 | 0.00 | 80 | 1013.5 |
| 20260904064016 | 80 | 212 | 1.0 | 3.0 | 0.00 | 0.00 | 0.00 | 80 | 1013.5 |
| 20260904063017 | 80 | 211 | 2.0 | 4.0 | 0.00 | 0.00 | 0.00 | 80 | 1013.4 |
| 20260904062037 | 80 | 197 | 2.0 | 6.0 | 0.00 | 0.00 | 0.00 | 79 | 1013.5 |
| 20260904061017 | 80 | 186 | 3.0 | 7.0 | 0.00 | 0.00 | 0.00 | 79 | 1013.5 |
| 20260904060018 | 80 | 183 | 3.0 | 7.0 | 0.00 | 0.00 | 0.00 | 78 | 1013.6 |
| 20260904055018 | 80 | 185 | 2.0 | 5.0 | 0.00 | 0.00 | 0.00 | 78 | 1013.5 |
| 20260904054018 | 80 | 191 | 3.0 | 8.0 | 0.00 | 0.00 | 0.00 | 77 | 1013.5 |
| 20260904053015 | 80 | 210 | 3.0 | 9.0 | 0.00 | 0.00 | 0.00 | 77 | 1013.4 |
| 20260904052039 | 80 | 177 | 2.0 | 6.0 | 0.00 | 0.00 | 0.00 | 76 | 1013.4 |
| 20260904051015 | 80 | 181 | 2.0 | 6.0 | 0.00 | 0.00 | 0.00 | 75 | 1013.4 |
| 20260904050016 | 80 | 163 | 2.0 | 6.0 | 0.00 | 0.00 | 0.00 | 74 | 1013.4 |
| 20260904045016 | 81 | 143 | 1.0 | 5.0 | 0.00 | 0.00 | 0.00 | 73 | 1013.4 |
| 20260904044017 | 81 | 138 | 2.0 | 5.0 | 0.00 | 0.00 | 0.00 | 71 | 1013.3 |
| 20260904043036 | 81 | 179 | 2.0 | 7.0 | 0.00 | 0.00 | 0.00 | 70 | 1013.4 |
| 20260904042017 | 81 | 145 | 2.0 | 6.0 | 0.00 | 0.00 | 0.00 | 69 | 1013.4 |
| 20260904041017 | 82 | 144 | 1.0 | 6.0 | 0.00 | 0.00 | 0.00 | 68 | 1013.5 |
| 20260904040037 | 82 | 124 | 3.0 | 6.0 | 0.00 | 0.00 | 0.00 | 68 | 1013.5 |
| 20260904035017 | 82 | 129 | 3.0 | 7.0 | 0.00 | 0.00 | 0.00 | 68 | 1013.4 |
| 20260904034018 | 82 | 130 | 3.0 | 7.0 | 0.00 | 0.00 | 0.00 | 68 | 1013.4 |
| 20260904033018 | 82 | 150 | 2.0 | 6.0 | 0.00 | 0.00 | 0.00 | 68 | 1013.3 |
| 20260904032015 | 82 | 141 | 2.0 | 7.0 | 0.00 | 0.00 | 0.00 | 69 | 1013.3 |
| 20260904031015 | 83 | 138 | 3.0 | 7.0 | 0.00 | 0.00 | 0.00 | 69 | 1013.2 |
| 20260904030036 | 83 | 144 | 2.0 | 9.0 | 0.00 | 0.00 | 0.00 | 69 | 1013.2 |
| 20260904025035 | 83 | 130 | 3.0 | 8.0 | 0.00 | 0.00 | 0.00 | 70 | 1013.1 |
| 20260904024016 | 83 | 106 | 3.0 | 8.0 | 0.00 | 0.00 | 0.00 | 70 | 1012.9 |
| 20260904023016 | 83 | 100 | 3.0 | 8.0 | 0.00 | 0.00 | 0.00 | 70 | 1012.8 |
| 20260904022016 | 83 | 136 | 2.0 | 8.0 | 0.00 | 0.00 | 0.00 | 70 | 1012.7 |
| 20260904021016 | 84 | 122 | 3.0 | 7.0 | 0.00 | 0.00 | 0.00 | 70 | 1012.5 |
| 20260904020016 | 84 | 152 | 2.0 | 6.0 | 0.00 | 0.00 | 0.00 | 70 | 1012.3 |
| 20260904015017 | 85 | 142 | 3.0 | 8.0 | 0.00 | 0.00 | 0.00 | 69 | 1012.0 |
| 20260904014017 | 85 | 117 | 3.0 | 7.0 | 0.00 | 0.00 | 0.00 | 65 | 1011.9 |
| 20260904013017 | 86 | 122 | 3.0 | 9.0 | 0.00 | 0.00 | 0.00 | 62 | 1011.7 |
| 20260904012017 | 86 | 135 | 2.0 | 7.0 | 0.00 | 0.00 | 0.00 | 59 | 1011.6 |
| 20260904011017 | 87 | 143 | 3.0 | 7.0 | 0.00 | 0.00 | 0.00 | 57 | 1011.6 |
| 20260904010017 | 87 | 138 | 3.0 | 8.0 | 0.00 | 0.00 | 0.00 | 56 | 1011.5 |
| 20260904005037 | 87 | 165 | 3.0 | 6.0 | 0.00 | 0.00 | 0.00 | 57 | 1011.5 |
| 20260904004018 | 88 | 147 | 2.0 | 6.0 | 0.00 | 0.00 | 0.00 | 58 | 1011.5 |
| 20260904003038 | 88 | 163 | 3.0 | 8.0 | 0.00 | 0.00 | 0.00 | 58 | 1011.4 |
| 20260904002015 | 89 | 122 | 3.0 | 8.0 | 0.00 | 0.00 | 0.00 | 58 | 1011.5 |
| 20260904001018 | 89 | 145 | 3.0 | 9.0 | 0.00 | 0.00 | 0.00 | 57 | 1011.5 |
| 20260904000018 | 90 | 155 | 3.0 | 7.0 | 0.00 | 0.00 | 0.00 | 57 | 1011.3 |
| 20260903235015 | 91 | 133 | 3.0 | 9.0 | 0.00 | 0.00 | 0.00 | 57 | 1011.3 |
| 20260903234016 | 91 | 133 | 2.0 | 8.0 | 0.00 | 0.00 | 0.00 | 56 | 1011.2 |
| 20260903233016 | 91 | 113 | 2.0 | 10.0 | 0.00 | 0.00 | 0.00 | 56 | 1011.1 |
| 20260903232016 | 91 | 144 | 3.0 | 9.0 | 0.00 | 0.00 | 0.00 | 56 | 1011.1 |
| 20260903231016 | 92 | 131 | 3.0 | 8.0 | 0.00 | 0.00 | 0.00 | 56 | 1011.0 |
| 20260903230016 | 92 | 117 | 3.0 | 9.0 | 0.00 | 0.00 | 0.00 | 55 | 1010.9 |
| 20260903225016 | 92 | 142 | 3.0 | 8.0 | 0.00 | 0.00 | 0.00 | 56 | 1010.8 |
| 20260903224017 | 93 | 118 | 4.0 | 9.0 | 0.00 | 0.00 | 0.00 | 55 | 1010.8 |
| 20260903223037 | 93 | 117 | 3.0 | 7.0 | 0.00 | 0.00 | 0.00 | 54 | 1010.9 |
| 20260903222017 | 93 | 215 | 3.0 | 9.0 | 0.00 | 0.00 | 0.00 | 55 | 1010.9 |
| 20260903221058 | 93 | 116 | 3.0 | 9.0 | 0.00 | 0.00 | 0.00 | 55 | 1011.0 |
| 20260903220017 | 93 | 144 | 3.0 | 9.0 | 0.00 | 0.00 | 0.00 | 55 | 1011.0 |
| 20260903215018 | 94 | 173 | 3.0 | 6.0 | 0.00 | 0.00 | 0.00 | 54 | 1011.0 |
| 20260903214038 | 93 | 156 | 2.0 | 6.0 | 0.00 | 0.00 | 0.00 | 55 | 1011.0 |
| 20260903213038 | 92 | 150 | 2.0 | 6.0 | 0.00 | 0.00 | 0.00 | 57 | 1011.1 |
| 20260903212018 | 92 | 154 | 3.0 | 7.0 | 0.00 | 0.00 | 0.00 | 56 | 1011.2 |
| 20260903211015 | 92 | 178 | 3.0 | 7.0 | 0.00 | 0.00 | 0.00 | 58 | 1011.4 |
| 20260903210056 | 91 | 144 | 2.0 | 6.0 | 0.00 | 0.00 | 0.00 | 60 | 1011.5 |
| 20260903205016 | 91 | 142 | 3.0 | 8.0 | 0.00 | 0.00 | 0.00 | 60 | 1011.8 |
| 20260903204016 | 91 | 208 | 3.0 | 8.0 | 0.00 | 0.00 | 0.00 | 60 | 1011.8 |
| 20260903203016 | 91 | 201 | 3.0 | 9.0 | 0.00 | 0.00 | 0.00 | 59 | 1011.8 |
| 20260903202016 | 91 | 148 | 3.0 | 7.0 | 0.00 | 0.00 | 0.00 | 58 | 1011.8 |
| 20260903201017 | 90 | 127 | 2.0 | 6.0 | 0.00 | 0.00 | 0.00 | 61 | 1011.9 |
| 20260903200017 | 90 | 173 | 3.0 | 7.0 | 0.00 | 0.00 | 0.00 | 62 | 1012.0 |
| 20260903195037 | 89 | 204 | 4.0 | 9.0 | 0.00 | 0.00 | 0.00 | 63 | 1012.1 |
| 20260903194017 | 89 | 189 | 3.0 | 9.0 | 0.00 | 0.00 | 0.00 | 63 | 1012.1 |
| 20260903193017 | 89 | 183 | 4.0 | 8.0 | 0.00 | 0.00 | 0.00 | 64 | 1012.3 |
| 20260903192037 | 91 | 179 | 4.0 | 9.0 | 0.00 | 0.00 | 0.00 | 62 | 1012.4 |
| 20260903191018 | 90 | 174 | 3.0 | 10.0 | 0.00 | 0.00 | 0.00 | 62 | 1012.5 |
| 20260903190018 | 88 | 219 | 3.0 | 10.0 | 0.00 | 0.00 | 0.00 | 65 | 1012.6 |
| 20260903185017 | 87 | 183 | 3.0 | 7.0 | 0.00 | 0.00 | 0.00 | 66 | 1013.0 |
| 20260903184018 | 87 | 193 | 5.0 | 11.0 | 0.00 | 0.00 | 0.00 | 69 | 1013.2 |
| 20260903183018 | 87 | 174 | 4.0 | 8.0 | 0.00 | 0.00 | 0.00 | 69 | 1013.3 |
| 20260903182018 | 87 | 169 | 3.0 | 9.0 | 0.00 | 0.00 | 0.00 | 68 | 1013.2 |
| 20260903181015 | 87 | 152 | 3.0 | 9.0 | 0.00 | 0.00 | 0.00 | 70 | 1013.3 |
| 20260903180016 | 87 | 181 | 4.0 | 9.0 | 0.00 | 0.00 | 0.00 | 68 | 1013.4 |
| 20260903175016 | 87 | 188 | 4.0 | 11.0 | 0.00 | 0.00 | 0.00 | 68 | 1013.5 |
| 20260903174015 | 87 | 177 | 3.0 | 8.0 | 0.00 | 0.00 | 0.00 | 68 | 1013.6 |
| 20260903173016 | 87 | 170 | 4.0 | 8.0 | 0.00 | 0.00 | 0.00 | 69 | 1013.7 |
| 20260903172016 | 87 | 170 | 4.0 | 10.0 | 0.00 | 0.00 | 0.00 | 68 | 1013.8 |